TimeMST,TemperatureF,Dew PointF,Humidity,Sea Level PressureIn,VisibilityMPH,Wind Direction,Wind SpeedMPH,Gust SpeedMPH,PrecipitationIn,Events,Conditions,WindDirDegrees,DateUTC
12:54 AM,68.0,26.1,21,29.95,10.0,WNW,3.5,-,N/A,,Clear,300,2013-05-13 07:54:00
1:54 AM,64.0,26.1,24,29.95,10.0,NNE,3.5,-,N/A,,Clear,30,2013-05-13 08:54:00
2:54 AM,61.0,26.1,26,29.95,10.0,NNE,9.2,-,N/A,,Clear,30,2013-05-13 09:54:00
3:54 AM,60.1,27.0,28,29.95,10.0,NE,6.9,-,N/A,,Clear,50,2013-05-13 10:54:00
4:54 AM,59.0,27.0,29,29.96,10.0,NNE,5.8,-,N/A,,Clear,20,2013-05-13 11:54:00
5:54 AM,60.1,27.0,28,29.99,10.0,NNE,6.9,-,N/A,,Clear,30,2013-05-13 12:54:00
6:54 AM,66.9,28.9,24,29.99,10.0,NNE,5.8,-,N/A,,Clear,20,2013-05-13 13:54:00
7:54 AM,73.0,28.9,20,30.00,10.0,Variable,3.5,-,N/A,,Clear,0,2013-05-13 14:54:00
8:54 AM,77.0,28.9,17,29.98,10.0,Variable,6.9,-,N/A,,Clear,0,2013-05-13 15:54:00
9:54 AM,82.0,28.0,14,29.97,10.0,SE,11.5,23.0,N/A,,Clear,130,2013-05-13 16:54:00
10:54 AM,84.0,25.0,12,29.96,10.0,East,15.0,26.5,N/A,,Clear,80,2013-05-13 17:54:00
11:54 AM,84.9,23.0,10,29.95,10.0,East,15.0,25.3,N/A,,Clear,80,2013-05-13 18:54:00
1:36 PM,88.0,18.0,8,30.11,10.0,NE,17.3,25.3,N/A,,Clear,50,2013-05-13 20:36:00
1:54 PM,89.1,17.1,7,29.90,10.0,NNE,11.5,25.3,N/A,,Clear,30,2013-05-13 20:54:00
2:54 PM,88.0,17.1,7,29.88,10.0,East,9.2,21.9,N/A,,Clear,100,2013-05-13 21:54:00
3:54 PM,88.0,14.0,6,29.87,10.0,NNE,15.0,25.3,N/A,,Clear,30,2013-05-13 22:54:00
4:54 PM,87.8,12.2,6,30.04,10.0,NE,17.3,24.2,N/A,,Clear,50,2013-05-13 23:54:00
5:54 PM,86.0,9.0,5,29.86,10.0,East,15.0,24.2,N/A,,Clear,80,2013-05-14 00:54:00
6:54 PM,82.0,12.0,7,29.86,10.0,East,8.1,-,N/A,,Clear,100,2013-05-14 01:54:00
7:54 PM,79.0,12.0,8,29.87,10.0,ESE,9.2,-,N/A,,Clear,120,2013-05-14 02:54:00
8:54 PM,78.1,14.0,9,29.87,10.0,ESE,10.4,-,N/A,,Clear,110,2013-05-14 03:54:00
9:54 PM,71.1,15.1,12,29.90,10.0,SSE,6.9,-,N/A,,Clear,160,2013-05-14 04:54:00
10:54 PM,70.0,18.0,14,29.91,10.0,SSE,4.6,-,N/A,,Clear,160,2013-05-14 05:54:00
11:54 PM,66.9,24.1,20,29.92,10.0,SSE,3.5,-,N/A,,Clear,160,2013-05-14 06:54:00